DW9330 Weather Reports


time (UTC)temp
C
wind
direction
speed
KPH
gust
KPH
rain 1hr
cm
rain 24hr
cm
rain mn
cm
humidity
%
barometer
mb
20260505201041 27 190 9.7 22.5 0.00 0.00 0.00 32 1007.4
20260505200540 27 209 4.8 17.7 0.00 0.00 0.00 34 1007.5
20260505200039 27 201 3.2 20.9 0.00 0.00 0.00 34 1007.7
20260505195540 27 220 6.4 19.3 0.00 0.00 0.00 33 1007.7
20260505195039 27 205 4.8 22.5 0.00 0.00 0.00 33 1007.7
20260505194543 27 214 8.0 22.5 0.00 0.00 0.00 31 1007.7
20260505194039 27 188 6.4 19.3 0.00 0.00 0.00 33 1007.8
20260505193539 27 188 8.0 19.3 0.00 0.00 0.00 31 1007.8
20260505193038 27 197 8.0 16.1 0.00 0.00 0.00 34 1007.9
20260505192542 27 219 4.8 16.1 0.00 0.00 0.00 34 1007.8
20260505192037 27 202 6.4 14.5 0.00 0.00 0.00 32 1008.0
20260505191543 27 230 6.4 16.1 0.00 0.00 0.00 36 1008.0
20260505191036 27 171 4.8 17.7 0.00 0.00 0.00 35 1008.0
20260505190535 27 273 6.4 20.9 0.00 0.00 0.00 32 1008.0
20260505190035 27 262 8.0 20.9 0.00 0.00 0.00 32 1008.1
20260505185537 27 250 4.8 24.1 0.00 0.00 0.00 35 1008.2
20260505185034 27 269 9.7 24.1 0.00 0.00 0.00 34 1008.3
20260505184544 27 267 6.4 17.7 0.00 0.00 0.00 35 1008.3
20260505184034 27 194 8.0 25.7 0.00 0.00 0.00 33 1008.4
20260505183534 27 259 9.7 25.7 0.00 0.00 0.00 34 1008.4
20260505183040 27 200 4.8 24.1 0.00 0.00 0.00 37 1008.2
20260505182535 27 142 6.4 29.0 0.00 0.00 0.00 40 1008.5
20260505182032 27 273 9.7 17.7 0.00 0.00 0.00 35 1008.5
20260505181531 27 234 4.8 25.7 0.00 0.00 0.00 37 1008.4
20260505181034 26 230 9.7 25.7 0.00 0.00 0.00 35 1008.6
20260505180534 27 209 9.7 22.5 0.00 0.00 0.00 34 1008.7
20260505180029 27 179 4.8 24.1 0.00 0.00 0.00 37 1008.7
20260505175530 27 293 8.0 16.1 0.00 0.00 0.00 35 1008.7
20260505175028 27 238 3.2 24.1 0.00 0.00 0.00 37 1008.6
20260505174528 27 252 6.4 24.1 0.00 0.00 0.00 37 1008.7
20260505174027 27 193 4.8 19.3 0.00 0.00 0.00 36 1008.8
20260505173528 26 216 8.0 22.5 0.00 0.00 0.00 40 1008.8
20260505173027 26 223 6.4 22.5 0.00 0.00 0.00 37 1008.8
20260505172526 27 198 4.8 22.5 0.00 0.00 0.00 36 1008.9
20260505172028 26 202 8.0 22.5 0.00 0.00 0.00 39 1009.0
20260505171525 26 231 6.4 24.1 0.00 0.00 0.00 42 1009.0
20260505171025 27 251 3.2 17.7 0.00 0.00 0.00 37 1009.1
20260505170524 26 226 6.4 17.7 0.00 0.00 0.00 39 1009.2
20260505170032 26 294 3.2 14.5 0.00 0.00 0.00 38 1009.3
20260505165523 26 242 3.2 14.5 0.00 0.00 0.00 44 1009.4
20260505165023 26 207 8.0 19.3 0.00 0.00 0.00 40 1009.5
20260505164525 26 178 3.2 19.3 0.00 0.00 0.00 43 1009.7
20260505164021 26 275 4.8 19.3 0.00 0.00 0.00 36 1009.8
20260505163522 26 212 3.2 16.1 0.00 0.00 0.00 45 1009.9
20260505163026 26 200 6.4 20.9 0.00 0.00 0.00 43 1010.0
20260505162525 26 212 6.4 16.1 0.00 0.00 0.00 40 1009.9
20260505162020 26 232 1.6 17.7 0.00 0.00 0.00 44 1009.9
20260505161520 25 202 8.0 17.7 0.00 0.00 0.00 44 1010.0
20260505161024 26 234 3.2 14.5 0.00 0.00 0.00 42 1010.0
20260505160519 26 193 4.8 14.5 0.00 0.00 0.00 42 1009.9
20260505153017 25 306 4.8 19.3 0.00 0.00 0.00 42 1010.0
20260505152516 25 197 3.2 14.5 0.00 0.00 0.00 43 1010.0
20260505152016 25 211 4.8 14.5 0.00 0.00 0.00 46 1010.0
20260505151522 25 226 3.2 16.1 0.00 0.00 0.00 46 1009.9
20260505151015 25 217 4.8 16.1 0.00 0.00 0.00 46 1010.0
20260505150514 25 297 3.2 14.5 0.00 0.00 0.00 43 1010.0
20260505140508 23 228 4.8 14.5 0.00 0.00 0.00 48 1010.4
20260505124554 20 207 4.8 9.7 0.00 0.00 0.00 58 1011.1
20260505124049 20 216 3.2 11.3 0.00 0.00 0.00 59 1011.1
20260505123548 19 205 3.2 11.3 0.00 0.00 0.00 59 1011.1
20260505123047 19 215 4.8 11.3 0.00 0.00 0.00 61 1011.1
20260505122546 18 202 4.8 8.0 0.00 0.00 0.00 61 1011.2
20260505122045 18 207 3.2 8.0 0.00 0.00 0.00 63 1011.2
20260505121548 18 229 3.2 6.4 0.00 0.00 0.00 64 1011.1
20260505121043 18 228 1.6 4.8 0.00 0.00 0.00 64 1011.1
20260505120540 17 229 1.6 6.4 0.00 0.00 0.00 65 1011.0
20260505120040 17 234 1.6 6.4 0.00 0.00 0.00 65 1011.0
20260505115539 17 221 1.6 6.4 0.00 0.00 0.00 65 1010.8
20260505115039 17 221 1.6 8.0 0.00 0.00 0.00 67 1010.8
20260505114538 16 234 1.6 6.4 0.00 0.00 0.00 68 1010.8
20260505114037 16 205 1.6 6.4 0.00 0.00 0.00 69 1010.7
20260505113536 15 205 1.6 6.4 0.00 0.00 0.00 71 1010.6
20260505113042 15 202 0.0 4.8 0.00 0.00 0.00 73 1010.5
20260505112536 15 202 1.6 4.8 0.00 0.00 0.00 73 1010.5
20260505112035 15 202 0.0 3.2 0.00 0.00 0.00 74 1010.4
20260505111543 15 202 0.0 1.6 0.00 0.00 0.00 72 1010.4
20260505111033 15 202 0.0 1.6 0.00 0.00 0.00 71 1010.3
20260505110532 15 202 0.0 1.6 0.00 0.00 0.00 70 1010.2
20260505102031 15 252 4.8 11.3 0.00 0.00 0.00 68 1009.8
20260505101534 15 207 1.6 9.7 0.00 0.00 0.00 68 1009.8
20260505101029 15 198 1.6 11.3 0.00 0.00 0.00 68 1009.9
20260505100529 15 209 1.6 8.0 0.00 0.00 0.00 68 1009.9
20260505100031 15 211 1.6 4.8 0.00 0.00 0.00 67 1009.8
20260505095527 15 223 1.6 8.0 0.00 0.00 0.00 67 1009.8
20260505095026 15 208 3.2 8.0 0.00 0.00 0.00 67 1009.8
20260505094527 15 287 1.6 9.7 0.00 0.00 0.00 67 1009.7
20260505094027 15 188 3.2 9.7 0.00 0.00 0.00 66 1009.7
20260505093524 15 193 3.2 9.7 0.00 0.00 0.00 66 1009.7
20260505093030 16 186 3.2 9.7 0.00 0.00 0.00 66 1009.7
20260505092524 16 175 1.6 12.9 0.00 0.00 0.00 66 1009.6
20260505092024 16 207 3.2 12.9 0.00 0.00 0.00 66 1009.6
20260505091524 16 210 4.8 9.7 0.00 0.00 0.00 66 1009.6
20260505091023 16 189 3.2 9.7 0.00 0.00 0.00 66 1009.7
20260505090524 16 170 3.2 8.0 0.00 0.00 0.00 66 1009.5
20260505090026 16 184 1.6 8.0 0.00 0.00 0.00 65 1009.5
20260505085521 16 192 3.2 9.7 0.00 0.00 0.00 65 1009.5
20260505085021 16 183 1.6 11.3 0.00 0.00 0.00 65 1009.5
20260505084527 16 206 1.6 9.7 0.00 0.00 0.00 65 1009.6
20260505084019 16 215 3.2 11.3 0.00 0.00 0.00 64 1009.5
20260505083518 16 194 1.6 3.2 0.00 0.00 0.00 64 1009.5
20260505083019 16 190 1.6 14.5 0.00 0.00 0.00 64 1009.4
20260505082518 16 192 3.2 14.5 0.00 0.00 0.00 63 1009.4
20260505082017 16 209 1.6 8.0 0.00 0.00 0.00 63 1009.4
20260505081518 16 192 0.0 4.8 0.00 0.00 0.00 63 1009.3
20260505081020 16 192 1.6 8.0 0.00 0.00 0.00 63 1009.3
20260505080519 16 191 1.6 8.0 0.00 0.00 0.00 62 1009.3
20260505080025 16 189 0.0 9.7 0.00 0.00 0.00 63 1009.3
20260505075520 16 189 4.8 9.7 0.00 0.00 0.00 62 1009.2
20260505075016 16 188 3.2 9.7 0.00 0.00 0.00 63 1009.3
20260505074516 16 189 1.6 9.7 0.00 0.00 0.00 63 1009.2
20260505074016 16 187 3.2 12.9 0.00 0.00 0.00 62 1009.3
20260505073516 16 208 3.2 14.5 0.00 0.00 0.00 63 1009.2
20260505073017 16 173 4.8 14.5 0.00 0.00 0.00 63 1009.2
20260505072516 16 211 4.8 8.0 0.00 0.00 0.00 63 1009.2
20260505072016 16 198 3.2 8.0 0.00 0.00 0.00 63 1009.2
20260505071516 16 185 1.6 8.0 0.00 0.00 0.00 63 1009.2
20260505071015 16 195 3.2 9.7 0.00 0.00 0.00 63 1009.2
20260505070514 16 196 1.6 9.7 0.00 0.00 0.00 63 1009.2
20260505070021 16 198 1.6 8.0 0.00 0.00 0.00 63 1009.2
20260505065514 16 196 1.6 8.0 0.00 0.00 0.00 63 1009.3
20260505065013 16 209 3.2 8.0 0.00 0.00 0.00 62 1009.3
20260505064513 17 178 3.2 8.0 0.00 0.00 0.00 62 1009.3
20260505064013 17 196 0.0 4.8 0.00 0.00 0.00 62 1009.4
20260505063512 17 197 1.6 4.8 0.00 0.00 0.00 61 1009.4
20260505063012 17 196 1.6 9.7 0.00 0.00 0.00 61 1009.4
20260505062512 17 194 1.6 9.7 0.00 0.00 0.00 61 1009.5
20260505062013 17 229 0.0 4.8 0.00 0.00 0.00 61 1009.5
20260505061514 17 229 0.0 4.8 0.00 0.00 0.00 61 1009.6
20260505061013 17 229 0.0 4.8 0.00 0.00 0.00 60 1009.7
20260505060511 17 231 0.0 4.8 0.00 0.00 0.00 60 1009.7
20260505060011 17 190 0.0 3.2 0.00 0.00 0.00 60 1009.7
20260505055511 17 190 0.0 8.0 0.00 0.00 0.00 60 1009.7
20260505055011 17 190 1.6 11.3 0.00 0.00 0.00 59 1009.6
20260505054510 17 248 0.0 11.3 0.00 0.00 0.00 60 1009.6
20260505054009 17 199 1.6 6.4 0.00 0.00 0.00 60 1009.7
20260505053509 17 200 0.0 4.8 0.00 0.00 0.00 60 1009.7
20260505053014 17 202 0.0 4.8 0.00 0.00 0.00 60 1009.6
20260505052510 17 201 0.0 4.8 0.00 0.00 0.00 60 1009.7
20260505052010 16 201 1.6 4.8 0.00 0.00 0.00 60 1009.7
20260505051510 16 201 0.0 3.2 0.00 0.00 0.00 61 1009.7
20260505051009 16 200 0.0 3.2 0.00 0.00 0.00 61 1009.7
20260505050511 16 200 0.0 4.8 0.00 0.00 0.00 61 1009.7
20260505041503 17 191 1.6 6.4 0.00 0.00 0.00 56 1009.5
20260505041002 17 192 1.6 6.4 0.00 0.00 0.00 56 1009.4
20260505040600 17 198 1.6 4.8 0.00 0.00 0.00 56 1009.5
20260505040104 17 200 1.6 8.0 0.00 0.00 0.00 55 1009.4
20260505035559 17 198 1.6 9.7 0.00 0.00 0.00 55 1009.5
20260505035059 17 183 1.6 9.7 0.00 0.00 0.00 55 1009.4
20260505034609 17 195 3.2 11.3 0.00 0.00 0.00 55 1009.4
20260505034101 17 200 3.2 11.3 0.00 0.00 0.00 55 1009.4
20260505033558 17 187 3.2 9.7 0.00 0.00 0.00 55 1009.3
20260505033104 17 196 1.6 9.7 0.00 0.00 0.00 55 1009.2
20260505032559 17 209 1.6 8.0 0.00 0.00 0.00 55 1009.2
20260505032058 17 200 1.6 4.8 0.00 0.00 0.00 54 1009.2
20260505031558 17 197 1.6 8.0 0.00 0.00 0.00 54 1009.2
20260505031057 17 198 1.6 8.0 0.00 0.00 0.00 54 1009.2
20260505030558 17 185 1.6 8.0 0.00 0.00 0.00 53 1009.2
20260505030057 17 179 3.2 9.7 0.00 0.00 0.00 53 1009.2
20260505025557 17 183 3.2 9.7 0.00 0.00 0.00 53 1009.2
20260505025056 17 172 4.8 11.3 0.00 0.00 0.00 53 1009.1
20260505024556 17 360 3.2 11.3 0.00 0.00 0.00 53 1009.2
20260505024056 17 196 4.8 9.7 0.00 0.00 0.00 53 1009.3
20260505023557 17 360 3.2 9.7 0.00 0.00 0.00 53 1009.5
20260505023057 17 185 1.6 12.9 0.00 0.00 0.00 54 1009.4
20260505022557 17 360 3.2 12.9 0.00 0.00 0.00 53 1009.4
20260505022100 17 360 1.6 8.0 0.00 0.00 0.00 53 1009.4
20260505021558 17 360 3.2 9.7 0.00 0.00 0.00 53 1009.5
20260505021056 17 360 1.6 12.9 0.00 0.00 0.00 53 1009.4
20260505020555 17 360 1.6 12.9 0.00 0.00 0.00 52 1009.3
20260505020055 17 360 3.2 9.7 0.00 0.00 0.00 52 1009.2
20260505015555 17 360 3.2 11.3 0.00 0.00 0.00 52 1009.3
20260505015055 17 360 3.2 9.7 0.00 0.00 0.00 51 1009.2
20260505014555 17 360 1.6 8.0 0.00 0.00 0.00 51 1009.2
20260505014054 18 360 3.2 9.7 0.00 0.00 0.00 51 1009.2
20260505013554 18 360 1.6 9.7 0.00 0.00 0.00 51 1009.1
20260505013055 18 360 3.2 12.9 0.00 0.00 0.00 50 1009.2
20260505012555 18 360 3.2 12.9 0.00 0.00 0.00 50 1009.3
20260505012056 18 360 6.4 14.5 0.00 0.00 0.00 50 1009.3
20260505011600 18 360 4.8 14.5 0.00 0.00 0.00 50 1009.2
20260505011055 18 360 3.2 8.0 0.00 0.00 0.00 50 1009.2
20260505010554 18 360 1.6 11.3 0.00 0.00 0.00 49 1009.0
20260505010103 18 360 4.8 11.3 0.00 0.00 0.00 49 1009.0
20260505005552 18 360 4.8 11.3 0.00 0.00 0.00 48 1008.9
20260505005053 18 360 4.8 12.9 0.00 0.00 0.00 48 1008.8
20260505004552 19 360 4.8 14.5 0.00 0.00 0.00 48 1008.8
20260505004055 19 360 4.8 14.5 0.00 0.00 0.00 47 1008.7
20260505003553 19 360 6.4 14.5 0.00 0.00 0.00 46 1008.7
20260505003053 19 360 3.2 12.9 0.00 0.00 0.00 46 1008.8
20260505002552 20 360 4.8 12.9 0.00 0.00 0.00 45 1008.7
20260505002052 20 360 3.2 9.7 0.00 0.00 0.00 44 1008.7
20260505001554 20 360 3.2 9.7 0.00 0.00 0.00 43 1008.7
20260505001051 20 360 3.2 9.7 0.00 0.00 0.00 42 1008.7
20260505000550 20 163 3.2 11.3 0.00 0.00 0.00 41 1008.7
20260505000059 21 190 4.8 11.3 0.00 0.00 0.00 41 1008.6
20260504235550 21 197 4.8 11.3 0.00 0.00 0.00 41 1008.6
20260504235051 21 199 3.2 11.3 0.00 0.00 0.00 41 1008.5
20260504234603 21 196 4.8 11.3 0.00 0.00 0.00 40 1008.5
20260504234053 21 214 4.8 11.3 0.00 0.00 0.00 39 1008.6
20260504233549 21 193 3.2 16.1 0.00 0.00 0.00 40 1008.6
20260504233050 21 202 4.8 16.1 0.00 0.00 0.00 40 1008.5
20260504232550 21 258 3.2 16.1 0.00 0.00 0.00 39 1008.5
20260504232049 21 202 6.4 22.5 0.00 0.00 0.00 39 1008.6
20260504231551 22 263 9.7 22.5 0.00 0.00 0.00 38 1008.6
20260504231049 22 194 4.8 16.1 0.00 0.00 0.00 38 1008.6
20260504230548 22 199 6.4 17.7 0.00 0.00 0.00 38 1008.6
20260504230048 22 199 6.4 17.7 0.00 0.00 0.00 39 1008.6
20260504225548 22 181 6.4 17.7 0.00 0.00 0.00 39 1008.6
20260504225050 22 190 3.2 11.3 0.00 0.00 0.00 39 1008.6
20260504224550 22 190 3.2 11.3 0.00 0.00 0.00 40 1008.7
20260504224046 22 209 3.2 17.7 0.00 0.00 0.00 39 1008.7
20260504223546 22 236 4.8 17.7 0.00 0.00 0.00 39 1008.7
20260504223046 22 202 4.8 24.1 0.00 0.00 0.00 39 1008.8
20260504222546 22 198 9.7 24.1 0.00 0.00 0.00 38 1008.8
20260504222049 22 216 3.2 14.5 0.00 0.00 0.00 39 1008.8
20260504221548 22 208 4.8 17.7 0.00 0.00 0.00 38 1008.8
20260504221045 22 186 3.2 17.7 0.00 0.00 0.00 38 1008.8
20260504220544 22 199 3.2 16.1 0.00 0.00 0.00 39 1008.9
20260504220050 22 227 4.8 16.1 0.00 0.00 0.00 39 1008.8
20260504215544 22 194 6.4 14.5 0.00 0.00 0.00 38 1008.8
20260504215046 22 199 4.8 11.3 0.00 0.00 0.00 38 1008.8
20260504214544 22 224 3.2 11.3 0.00 0.00 0.00 38 1008.9
20260504214043 22 209 3.2 12.9 0.00 0.00 0.00 39 1008.8
20260504213543 22 199 4.8 12.9 0.00 0.00 0.00 38 1008.8
20260504213101 22 257 6.4 12.9 0.00 0.00 0.00 39 1008.9
20260504212542 22 198 8.0 12.9 0.00 0.00 0.00 39 1009.0
20260504212045 22 200 4.8 12.9 0.00 0.00 0.00 39 1008.9
20260504211544 22 193 4.8 16.1 0.00 0.00 0.00 39 1008.8
20260504211043 22 212 4.8 16.1 0.00 0.00 0.00 39 1008.9
20260504210544 22 205 8.0 17.7 0.00 0.00 0.00 38 1008.8
20260504210042 22 228 4.8 12.9 0.00 0.00 0.00 38 1008.8
20260504205542 22 141 3.2 12.9 0.00 0.00 0.00 37 1008.8
20260504205041 22 205 4.8 14.5 0.00 0.00 0.00 39 1008.9
20260504204543 22 216 3.2 14.5 0.00 0.00 0.00 39 1008.9
20260504204040 22 210 6.4 16.1 0.00 0.00 0.00 39 1008.9
20260504203540 22 203 3.2 11.3 0.00 0.00 0.00 39 1008.9
20260504203040 22 261 3.2 14.5 0.00 0.00 0.00 40 1009.0
20260504202539 22 200 4.8 14.5 0.00 0.00 0.00 39 1009.1
20260504202037 22 208 6.4 16.1 0.00 0.00 0.00 37 1009.2
20260504201538 22 215 4.8 16.1 0.00 0.00 0.00 38 1009.3